Starlink 1663

operational
NORAD ID: 46535 Int'l Des: 2020-070 Owner: SPXS Country: US Constellation: starlink
LEOCIRCULARSTARLINK_TYPE

About Starlink 1663

Description loading...

Live Position

Loading 3D Globe...

Upcoming Passes

Altitude History

Altitude vs Time

uPlot chart will show altitude changes over time

Two-Line Element Set

1 46535U 20070D 25352.64665615 .00088233 00000-0 18959-2 0 9996
2 46535 53.0496 166.9647 0009973 161.6365 198.5002 15.43906656287475
Epoch: Dec 18, 2025 • Age: 7 hours

Current Status

Altitude 427.8 km
Velocity 7.66 km/s
Sub-Earth Point 10.56°N, 87.01°W
Launch Date Oct 6, 2020
Age 5.1 years
Type internet

Technical Details

Classification Payload
Mass 260.00 kg
Dry Mass 248.00 kg
Total Mass 260.00 kg
Length 0.20 m
Diameter 2.80 m
Span 9.00 m
Shape Box + pan
Manufacturer SPXS
Bus Type Starlink
Phase Status In Orbit
Owner/State SPXS/US

Large Constellations

Loading constellations...